QPF
0.08 0.08 0.10 0.12 0.12 0.11 0.11 0.10 0.10 0.10 0.10 0.09 0.09 0.09 0.09 0.08 0.07 0.06 0.06 0.05 0.04 0.03 0.03 0.03 0.03 0.02 0.03 0.03 0.02 0.02 0.02 0.01 0.01 0.00 0.00 0.00 0.00 0.00 0.01 0.01 0.01 0.01 0.01
0.05 0.06 0.07 0.08 0.07 0.07 0.08 0.08 0.08 0.08 0.08 0.08 0.08 0.09 0.09 0.08 0.07 0.07 0.06 0.05 0.04 0.03 0.03 0.02 0.02 0.01 0.01 0.01 0.01 0.01 0.00 0.00 0.01 0.00 0.00 0.00 0.01 0.01 0.01 0.01 0.01 0.00 0.01
0.03 0.03 0.04 0.04 0.04 0.05 0.05 0.06 0.06 0.06 0.06 0.06 0.05 0.05 0.05 0.04 0.04 0.03 0.02 0.01 0.01 0.01 0.01 0.01 0.00 0.00 0.01 0.01 0.00 0.00 0.00 0.00 0.01 0.01 0.01 0.01 0.01 0.01 0.01 0.01 0.02 0.03 0.01
0.01 0.01 0.02 0.02 0.03 0.04 0.05 0.05 0.04 0.03 0.03 0.02 0.01 0.01 0.01 0.01 0.00 0.00 0.00 0.00 0.00 0.00 0.00 0.00 0.00 0.00 0.00 0.00 0.00 0.01 0.01 0.01 0.01 0.01 0.01 0.01 0.01 0.02 0.02 0.03 0.03 0.03 0.02
0.01 0.00 0.01 0.01 0.02 0.02 0.02 0.02 0.01 0.01 0.00 0.00 0.00 0.00 0.00 0.00 0.00 0.00 0.00 0.00 0.00 0.00 0.00 0.00 0.00 0.00 0.00 0.00 0.00 0.00 0.00 0.00 0.01 0.01 0.01 0.01 0.02 0.03 0.04 0.04 0.03 0.03 0.02
0.01 0.00 0.01 0.01 0.01 0.01 0.01 0.01 0.01 0.00 0.00 0.00 0.00 0.00 0.00 0.00 0.00 0.00 0.00 0.00 0.00 0.01 0.01 0.01 0.01 0.00 0.00 0.00 0.00 0.00 0.00 0.00 0.00 0.00 0.01 0.02 0.03 0.05 0.05 0.04 0.04 0.03 0.02
0.01 0.01 0.01 0.01 0.01 0.01 0.01 0.01 0.01 0.01 0.01 0.01 0.01 0.01 0.01 0.00 0.00 0.00 0.00 0.00 0.01 0.01 0.01 0.01 0.01 0.01 0.01 0.01 0.01 0.00 0.01 0.01 0.01 0.01 0.01 0.03 0.05 0.05 0.04 0.03 0.03 0.03 0.03
0.01 0.01 0.01 0.01 0.01 0.00 0.00 0.01 0.01 0.01 0.01 0.01 0.01 0.01 0.01 0.00 0.00 0.00 0.00 0.00 0.01 0.01 0.01 0.02 0.02 0.02 0.01 0.00 0.00 0.01 0.03 0.06 0.04 0.03 0.04 0.04 0.03 0.02 0.02 0.01 0.01 0.02 0.04
0.01 0.00 0.00 0.00 0.00 0.01 0.01 0.01 0.01 0.01 0.01 0.01 0.01 0.01 0.02 0.01 0.00 0.00 0.00 0.00 0.01 0.01 0.01 0.01 0.01 0.01 0.00 0.00 0.00 0.01 0.04 0.06 0.04 0.02 0.01 0.01 0.00 0.00 0.00 0.00 0.02 0.04 0.05
0.00 0.00 0.00 0.01 0.01 0.01 0.01 0.01 0.01 0.01 0.02 0.02 0.01 0.01 0.02 0.01 0.00 0.00 0.00 0.00 0.01 0.02 0.03 0.04 0.02 0.00 0.00 0.00 0.00 0.01 0.03 0.03 0.03 0.02 0.04 0.04 0.05 0.04 0.02 0.01 0.03 0.06 0.07
0.00 0.00 0.00 0.00 0.00 0.01 0.02 0.02 0.02 0.02 0.02 0.02 0.02 0.02 0.02 0.01 0.00 0.00 0.00 0.00 0.01 0.01 0.03 0.05 0.04 0.00 0.00 0.00 0.00 0.01 0.01 0.00 0.01 0.04 0.08 0.09 0.09 0.10 0.09 0.08 0.09 0.10 0.08
0.00 0.00 0.01 0.00 0.00 0.01 0.02 0.01 0.01 0.02 0.02 0.02 0.02 0.02 0.02 0.02 0.01 0.00 0.00 0.00 0.00 0.00 0.03 0.03 0.02 0.00 0.00 0.00 0.00 0.00 0.00 0.00 0.04 0.08 0.10 0.10 0.09 0.08 0.09 0.10 0.11 0.11 0.11
0.01 0.01 0.00 0.00 0.00 0.00 0.01 0.01 0.01 0.02 0.01 0.01 0.01 0.02 0.02 0.03 0.02 0.00 0.00 0.00 0.00 0.00 0.02 0.01 0.00 0.00 0.00 0.02 0.01 0.00 0.01 0.04 0.08 0.10 0.09 0.09 0.08 0.08 0.07 0.08 0.09 0.10 0.10
0.01 0.01 0.00 0.00 0.00 0.00 0.01 0.00 0.01 0.01 0.01 0.01 0.01 0.02 0.03 0.04 0.02 0.00 0.00 0.01 0.01 0.01 0.02 0.02 0.02 0.02 0.02 0.03 0.04 0.05 0.06 0.07 0.06 0.08 0.09 0.09 0.08 0.07 0.08 0.08 0.08 0.08 0.08
0.01 0.00 0.00 0.00 0.00 0.01 0.01 0.00 0.00 0.00 0.00 0.00 0.00 0.01 0.01 0.01 0.00 0.00 0.00 0.00 0.00 0.00 0.00 0.04 0.09 0.09 0.09 0.09 0.09 0.08 0.09 0.07 0.07 0.08 0.09 0.09 0.09 0.09 0.08 0.06 0.06 0.07 0.08
0.01 0.01 0.00 0.00 0.00 0.00 0.01 0.01 0.00 0.00 0.00 0.00 0.00 0.00 0.00 0.00 0.00 0.00 0.00 0.00 0.00 0.00 0.01 0.07 0.09 0.08 0.07 0.07 0.06 0.06 0.06 0.06 0.05 0.05 0.06 0.07 0.07 0.07 0.07 0.05 0.05 0.06 0.08
0.01 0.00 0.00 0.00 0.00 0.00 0.00 0.01 0.02 0.01 0.00 0.00 0.00 0.00 0.00 0.00 0.00 0.00 0.00 0.00 0.00 0.00 0.04 0.07 0.06 0.06 0.06 0.04 0.04 0.04 0.04 0.03 0.02 0.03 0.04 0.04 0.04 0.05 0.06 0.06 0.05 0.07 0.08
0.00 0.00 0.00 0.00 0.00 0.00 0.00 0.00 0.01 0.02 0.03 0.02 0.01 0.00 0.00 0.00 0.00 0.00 0.00 0.01 0.03 0.03 0.05 0.05 0.04 0.04 0.03 0.02 0.02 0.02 0.02 0.02 0.01 0.01 0.02 0.02 0.02 0.04 0.04 0.04 0.04 0.04 0.07
0.00 0.00 0.00 0.00 0.00 0.00 0.00 0.00 0.00 0.01 0.03 0.04 0.04 0.02 0.00 0.00 0.00 0.00 0.00 0.02 0.03 0.03 0.03 0.03 0.01 0.01 0.01 0.01 0.01 0.01 0.01 0.01 0.01 0.01 0.00 0.00 0.01 0.02 0.03 0.02 0.02 0.01 0.04
0.00 0.00 0.00 0.00 0.00 0.00 0.00 0.00 0.00 0.01 0.02 0.04 0.03 0.02 0.02 0.04 0.05 0.03 0.01 0.01 0.01 0.01 0.01 0.01 0.00 0.01 0.00 0.00 0.00 0.00 0.00 0.00 0.00 0.00 0.00 0.00 0.00 0.01 0.01 0.01 0.01 0.02 0.03
0.00 0.00 0.00 0.00 0.00 0.00 0.00 0.00 0.00 0.01 0.02 0.03 0.01 0.00 0.00 0.03 0.04 0.02 0.01 0.00 0.00 0.00 0.00 0.01 0.00 0.00 0.00 0.00 0.00 0.00 0.00 0.00 0.00 0.00 0.00 0.00 0.00 0.00 0.00 0.01 0.00 0.00 0.01
0.00 0.00 0.00 0.00 0.00 0.00 0.00 0.00 0.00 0.01 0.01 0.01 0.01 0.00 0.00 0.01 0.02 0.01 0.01 0.00 0.00 0.00 0.00 0.00 0.00 0.00 0.00 0.00 0.00 0.00 0.00 0.00 0.00 0.00 0.00 0.00 0.00 0.00 0.00 0.00 0.00 0.00 0.00
0.00 0.00 0.00 0.00 0.00 0.00 0.00 0.00 0.00 0.00 0.00 0.00 0.01 0.01 0.01 0.01 0.01 0.01 0.00 0.00 0.00 0.00 0.00 0.00 0.00 0.00 0.00 0.00 0.00 0.00 0.00 0.00 0.00 0.00 0.00 0.00 0.00 0.00 0.00 0.00 0.00 0.00 0.00
0.00 0.00 0.00 0.00 0.00 0.00 0.00 0.00 0.00 0.00 0.00 0.00 0.01 0.01 0.01 0.01 0.00 0.00 0.00 0.00 0.00 0.00 0.00 0.00 0.00 0.00 0.00 0.00 0.00 0.00 0.00 0.00 0.00 0.00 0.00 0.00 0.00 0.00 0.00 0.00 0.00 0.00 0.00
0.00 0.00 0.00 0.00 0.00 0.00 0.00 0.00 0.00 0.00 0.00 0.00 0.01 0.01 0.01 0.00 0.00 0.00 0.00 0.00 0.00 0.00 0.00 0.00 0.00 0.00 0.00 0.00 0.00 0.00 0.00 0.00 0.00 0.00 0.00 0.00 0.00 0.00 0.00 0.00 0.00 0.00 0.00
0.00 0.00 0.00 0.00 0.00 0.00 0.00 0.00 0.00 0.00 0.00 0.00 0.00 0.00 0.00 0.00 0.00 0.00 0.00 0.00 0.00 0.00 0.00 0.00 0.00 0.00 0.00 0.00 0.00 0.00 0.00 0.00 0.00 0.00 0.00 0.00 0.00 0.00 0.00 0.00 0.00 0.00 0.00
MSLP
1020.31 1020.64 1021.00 1021.38 1021.76 1022.11 1022.43 1022.71 1022.95 1023.14 1023.30 1023.42 1023.50 1023.53 1023.53 1023.50 1023.44 1023.35 1023.25 1023.16 1023.08 1023.02 1022.99 1022.96 1022.94 1022.90 1022.82 1022.69 1022.49 1022.22 1021.88 1021.49 1021.07 1020.65 1020.24 1019.88 1019.58 1019.34 1019.15 1019.00 1018.88 1018.77 1018.66
1021.29 1021.55 1021.81 1022.08 1022.33 1022.57 1022.78 1022.97 1023.14 1023.28 1023.41 1023.51 1023.60 1023.66 1023.69 1023.69 1023.65 1023.59 1023.50 1023.40 1023.29 1023.19 1023.10 1023.03 1022.96 1022.90 1022.81 1022.69 1022.53 1022.30 1022.01 1021.67 1021.29 1020.88 1020.47 1020.08 1019.71 1019.38 1019.10 1018.84 1018.61 1018.40 1018.19
1022.00 1022.19 1022.38 1022.55 1022.72 1022.88 1023.03 1023.16 1023.30 1023.42 1023.55 1023.67 1023.78 1023.88 1023.94 1023.98 1023.96 1023.91 1023.81 1023.69 1023.54 1023.39 1023.24 1023.11 1023.00 1022.90 1022.80 1022.69 1022.56 1022.38 1022.14 1021.85 1021.51 1021.12 1020.71 1020.29 1019.88 1019.48 1019.11 1018.76 1018.44 1018.13 1017.83
1022.48 1022.63 1022.76 1022.88 1022.99 1023.10 1023.22 1023.34 1023.47 1023.61 1023.76 1023.92 1024.07 1024.20 1024.31 1024.37 1024.37 1024.32 1024.21 1024.05 1023.86 1023.65 1023.44 1023.25 1023.09 1022.96 1022.85 1022.74 1022.62 1022.48 1022.28 1022.03 1021.72 1021.35 1020.93 1020.49 1020.03 1019.58 1019.14 1018.72 1018.32 1017.94 1017.58
1022.83 1022.95 1023.04 1023.12 1023.20 1023.29 1023.40 1023.52 1023.67 1023.84 1024.03 1024.23 1024.42 1024.59 1024.72 1024.80 1024.82 1024.76 1024.64 1024.45 1024.22 1023.96 1023.71 1023.47 1023.27 1023.10 1022.96 1022.85 1022.74 1022.60 1022.43 1022.19 1021.88 1021.52 1021.09 1020.62 1020.13 1019.63 1019.14 1018.67 1018.23 1017.81 1017.41
1023.12 1023.21 1023.28 1023.35 1023.41 1023.49 1023.60 1023.73 1023.90 1024.09 1024.30 1024.53 1024.75 1024.95 1025.10 1025.20 1025.22 1025.17 1025.03 1024.83 1024.57 1024.29 1024.00 1023.73 1023.49 1023.30 1023.14 1023.00 1022.88 1022.73 1022.54 1022.29 1021.98 1021.59 1021.14 1020.64 1020.12 1019.59 1019.07 1018.58 1018.12 1017.68 1017.29
1023.40 1023.49 1023.54 1023.59 1023.65 1023.72 1023.82 1023.95 1024.12 1024.32 1024.54 1024.77 1025.00 1025.20 1025.37 1025.47 1025.50 1025.45 1025.32 1025.12 1024.86 1024.57 1024.27 1023.98 1023.73 1023.51 1023.32 1023.16 1023.00 1022.82 1022.60 1022.32 1021.96 1021.55 1021.06 1020.54 1019.99 1019.44 1018.91 1018.41 1017.96 1017.54 1017.17
1023.71 1023.79 1023.84 1023.88 1023.92 1023.97 1024.06 1024.17 1024.32 1024.49 1024.69 1024.91 1025.13 1025.32 1025.48 1025.58 1025.61 1025.57 1025.46 1025.27 1025.03 1024.75 1024.46 1024.17 1023.91 1023.67 1023.45 1023.25 1023.04 1022.82 1022.55 1022.22 1021.82 1021.36 1020.84 1020.29 1019.72 1019.17 1018.65 1018.17 1017.74 1017.36 1017.03
1024.03 1024.11 1024.16 1024.20 1024.22 1024.25 1024.30 1024.38 1024.49 1024.63 1024.79 1024.97 1025.15 1025.32 1025.46 1025.56 1025.60 1025.57 1025.47 1025.31 1025.09 1024.83 1024.56 1024.27 1024.00 1023.73 1023.48 1023.24 1022.98 1022.70 1022.37 1021.99 1021.54 1021.04 1020.50 1019.93 1019.36 1018.81 1018.31 1017.86 1017.48 1017.15 1016.87
1024.34 1024.44 1024.50 1024.52 1024.54 1024.54 1024.56 1024.60 1024.66 1024.75 1024.87 1025.00 1025.15 1025.29 1025.41 1025.49 1025.53 1025.51 1025.42 1025.28 1025.08 1024.84 1024.57 1024.28 1023.99 1023.70 1023.41 1023.11 1022.80 1022.45 1022.07 1021.63 1021.15 1020.62 1020.06 1019.49 1018.93 1018.40 1017.93 1017.53 1017.19 1016.91 1016.69
1024.61 1024.73 1024.81 1024.84 1024.84 1024.84 1024.83 1024.83 1024.86 1024.91 1024.99 1025.08 1025.20 1025.31 1025.40 1025.47 1025.50 1025.48 1025.39 1025.25 1025.05 1024.80 1024.52 1024.21 1023.89 1023.56 1023.22 1022.86 1022.49 1022.09 1021.66 1021.19 1020.68 1020.13 1019.57 1019.01 1018.48 1017.99 1017.56 1017.19 1016.91 1016.68 1016.51
1024.83 1024.97 1025.06 1025.11 1025.12 1025.11 1025.09 1025.08 1025.09 1025.13 1025.18 1025.26 1025.35 1025.45 1025.53 1025.58 1025.59 1025.55 1025.44 1025.28 1025.05 1024.77 1024.45 1024.10 1023.73 1023.34 1022.94 1022.53 1022.10 1021.66 1021.19 1020.69 1020.16 1019.62 1019.08 1018.55 1018.04 1017.59 1017.20 1016.89 1016.64 1016.46 1016.33
1024.96 1025.13 1025.24 1025.30 1025.33 1025.33 1025.33 1025.34 1025.36 1025.40 1025.47 1025.55 1025.64 1025.72 1025.79 1025.82 1025.81 1025.73 1025.59 1025.38 1025.10 1024.76 1024.38 1023.96 1023.52 1023.06 1022.60 1022.14 1021.67 1021.19 1020.69 1020.18 1019.67 1019.14 1018.62 1018.12 1017.66 1017.25 1016.90 1016.63 1016.42 1016.28 1016.18
1025.00 1025.17 1025.30 1025.39 1025.44 1025.48 1025.52 1025.56 1025.62 1025.70 1025.79 1025.90 1026.00 1026.09 1026.15 1026.16 1026.11 1025.99 1025.79 1025.51 1025.16 1024.74 1024.28 1023.79 1023.28 1022.76 1022.25 1021.74 1021.24 1020.74 1020.24 1019.73 1019.23 1018.73 1018.24 1017.78 1017.35 1016.98 1016.67 1016.42 1016.25 1016.13 1016.06
1024.94 1025.11 1025.25 1025.35 1025.44 1025.52 1025.61 1025.70 1025.82 1025.95 1026.09 1026.23 1026.36 1026.46 1026.51 1026.49 1026.40 1026.22 1025.96 1025.60 1025.18 1024.69 1024.16 1023.60 1023.03 1022.46 1021.91 1021.38 1020.87 1020.37 1019.88 1019.39 1018.91 1018.44 1017.98 1017.55 1017.15 1016.80 1016.51 1016.28 1016.12 1016.02 1015.97
1024.78 1024.94 1025.08 1025.20 1025.32 1025.44 1025.57 1025.72 1025.89 1026.08 1026.27 1026.45 1026.60 1026.71 1026.75 1026.71 1026.58 1026.34 1026.02 1025.60 1025.11 1024.56 1023.98 1023.38 1022.78 1022.20 1021.65 1021.12 1020.62 1020.14 1019.68 1019.22 1018.76 1018.32 1017.88 1017.46 1017.07 1016.73 1016.44 1016.22 1016.06 1015.97 1015.92
1024.55 1024.69 1024.82 1024.95 1025.08 1025.24 1025.41 1025.61 1025.82 1026.05 1026.28 1026.49 1026.66 1026.77 1026.80 1026.73 1026.56 1026.29 1025.92 1025.46 1024.93 1024.36 1023.76 1023.16 1022.57 1022.02 1021.50 1021.01 1020.55 1020.11 1019.68 1019.25 1018.81 1018.38 1017.94 1017.52 1017.12 1016.77 1016.47 1016.23 1016.06 1015.96 1015.91
1024.28 1024.39 1024.51 1024.64 1024.78 1024.95 1025.15 1025.38 1025.63 1025.88 1026.14 1026.36 1026.53 1026.63 1026.64 1026.55 1026.36 1026.06 1025.67 1025.19 1024.67 1024.11 1023.54 1022.98 1022.45 1021.96 1021.50 1021.08 1020.68 1020.29 1019.90 1019.49 1019.07 1018.63 1018.18 1017.74 1017.31 1016.92 1016.59 1016.32 1016.12 1016.00 1015.94
1024.00 1024.10 1024.20 1024.31 1024.46 1024.64 1024.84 1025.09 1025.35 1025.62 1025.87 1026.09 1026.25 1026.34 1026.33 1026.23 1026.02 1025.71 1025.32 1024.87 1024.38 1023.88 1023.38 1022.91 1022.47 1022.07 1021.70 1021.37 1021.04 1020.70 1020.34 1019.96 1019.53 1019.07 1018.59 1018.10 1017.62 1017.18 1016.80 1016.48 1016.25 1016.09 1016.00
1023.77 1023.84 1023.92 1024.03 1024.17 1024.35 1024.56 1024.80 1025.06 1025.32 1025.57 1025.78 1025.92 1025.99 1025.97 1025.85 1025.64 1025.35 1024.99 1024.58 1024.16 1023.74 1023.34 1022.98 1022.65 1022.36 1022.10 1021.85 1021.59 1021.30 1020.97 1020.59 1020.14 1019.65 1019.12 1018.57 1018.03 1017.52 1017.08 1016.71 1016.42 1016.21 1016.08
1023.59 1023.64 1023.72 1023.82 1023.95 1024.13 1024.34 1024.58 1024.83 1025.08 1025.32 1025.50 1025.63 1025.68 1025.65 1025.53 1025.33 1025.06 1024.75 1024.42 1024.08 1023.76 1023.47 1023.22 1023.01 1022.83 1022.66 1022.49 1022.29 1022.03 1021.71 1021.31 1020.84 1020.30 1019.70 1019.09 1018.48 1017.91 1017.40 1016.96 1016.62 1016.36 1016.19
1023.47 1023.52 1023.59 1023.69 1023.83 1024.00 1024.22 1024.46 1024.70 1024.95 1025.16 1025.33 1025.45 1025.48 1025.45 1025.34 1025.16 1024.93 1024.68 1024.41 1024.16 1023.94 1023.76 1023.62 1023.51 1023.42 1023.33 1023.21 1023.04 1022.80 1022.47 1022.05 1021.53 1020.94 1020.28 1019.60 1018.93 1018.29 1017.72 1017.23 1016.83 1016.53 1016.31
1023.40 1023.44 1023.51 1023.62 1023.77 1023.96 1024.18 1024.42 1024.67 1024.91 1025.12 1025.29 1025.39 1025.43 1025.40 1025.30 1025.15 1024.97 1024.77 1024.58 1024.40 1024.27 1024.17 1024.12 1024.08 1024.06 1024.02 1023.93 1023.77 1023.52 1023.17 1022.71 1022.15 1021.50 1020.79 1020.05 1019.33 1018.64 1018.02 1017.48 1017.05 1016.70 1016.45
1023.35 1023.39 1023.47 1023.58 1023.75 1023.96 1024.19 1024.45 1024.71 1024.95 1025.17 1025.33 1025.44 1025.48 1025.46 1025.39 1025.27 1025.13 1024.98 1024.84 1024.74 1024.67 1024.64 1024.64 1024.65 1024.67 1024.64 1024.56 1024.40 1024.13 1023.75 1023.24 1022.64 1021.95 1021.20 1020.42 1019.66 1018.94 1018.29 1017.72 1017.26 1016.89 1016.61
1023.28 1023.32 1023.41 1023.55 1023.73 1023.95 1024.21 1024.48 1024.76 1025.01 1025.23 1025.40 1025.52 1025.57 1025.57 1025.52 1025.44 1025.33 1025.23 1025.15 1025.09 1025.07 1025.08 1025.12 1025.16 1025.19 1025.17 1025.07 1024.89 1024.59 1024.18 1023.64 1023.01 1022.29 1021.51 1020.72 1019.93 1019.20 1018.54 1017.97 1017.49 1017.11 1016.81
1023.19 1023.23 1023.33 1023.48 1023.68 1023.93 1024.20 1024.49 1024.77 1025.04 1025.27 1025.45 1025.57 1025.64 1025.66 1025.64 1025.59 1025.52 1025.46 1025.42 1025.41 1025.42 1025.47 1025.52 1025.57 1025.60 1025.57 1025.46 1025.25 1024.93 1024.49 1023.94 1023.29 1022.55 1021.77 1020.97 1020.20 1019.47 1018.81 1018.24 1017.76 1017.38 1017.07
Thickness
5641 5638 5636 5633 5629 5625 5621 5617 5613 5609 5606 5602 5599 5596 5593 5590 5587 5584 5582 5579 5576 5573 5571 5569 5565 5562 5559 5556 5553 5550 5547 5543 5539 5536 5534 5530 5527 5523 5520 5516 5513 5510 5507
5625 5622 5619 5616 5613 5610 5605 5602 5598 5595 5592 5589 5585 5582 5579 5576 5573 5571 5568 5565 5562 5559 5556 5552 5549 5547 5542 5538 5535 5532 5529 5526 5522 5519 5516 5514 5512 5510 5507 5504 5501 5499 5496
5610 5607 5604 5601 5598 5594 5590 5586 5584 5581 5578 5574 5571 5568 5565 5563 5560 5557 5554 5551 5547 5544 5540 5536 5533 5530 5525 5520 5517 5515 5512 5509 5505 5503 5501 5499 5498 5497 5495 5492 5490 5487 5485
5595 5593 5589 5586 5582 5579 5576 5573 5570 5567 5564 5561 5558 5555 5552 5548 5544 5541 5538 5536 5532 5529 5525 5521 5518 5514 5508 5503 5500 5496 5494 5490 5489 5487 5487 5486 5485 5484 5482 5479 5478 5477 5475
5581 5578 5574 5571 5568 5565 5562 5559 5557 5555 5552 5549 5546 5543 5539 5534 5527 5523 5521 5521 5517 5513 5510 5506 5503 5498 5492 5487 5484 5479 5476 5474 5472 5473 5473 5473 5472 5471 5469 5468 5467 5467 5467
5567 5564 5561 5558 5555 5552 5550 5547 5545 5542 5540 5537 5534 5530 5525 5518 5512 5508 5505 5503 5501 5499 5495 5492 5488 5484 5479 5474 5470 5467 5464 5462 5461 5460 5461 5462 5461 5461 5460 5459 5459 5458 5459
5556 5553 5550 5547 5545 5542 5540 5536 5534 5531 5528 5525 5522 5517 5510 5503 5499 5495 5492 5490 5488 5486 5483 5479 5475 5473 5468 5463 5460 5459 5458 5457 5456 5453 5453 5454 5455 5456 5455 5454 5453 5452 5452
5545 5543 5540 5538 5535 5532 5529 5526 5524 5521 5518 5515 5512 5507 5500 5492 5487 5484 5481 5480 5479 5476 5473 5470 5466 5462 5457 5453 5453 5454 5454 5455 5454 5454 5453 5453 5454 5454 5452 5450 5449 5450 5451
5536 5533 5531 5528 5525 5522 5519 5517 5514 5512 5509 5506 5502 5497 5490 5483 5478 5474 5471 5471 5471 5468 5466 5463 5459 5456 5450 5448 5449 5450 5452 5453 5455 5455 5454 5454 5455 5455 5453 5449 5448 5448 5448
5527 5524 5521 5519 5516 5513 5510 5508 5505 5503 5501 5498 5494 5489 5484 5477 5470 5467 5463 5464 5463 5462 5461 5458 5455 5452 5450 5448 5447 5448 5450 5452 5453 5454 5456 5457 5458 5458 5457 5452 5449 5447 5446
5518 5516 5513 5510 5508 5505 5503 5500 5499 5497 5494 5491 5488 5483 5478 5472 5465 5461 5458 5457 5456 5456 5457 5456 5455 5452 5451 5450 5449 5449 5451 5451 5452 5455 5457 5459 5461 5461 5459 5457 5453 5449 5446
5510 5508 5505 5503 5502 5499 5497 5495 5493 5491 5489 5486 5482 5478 5474 5468 5463 5459 5456 5454 5452 5452 5454 5455 5455 5454 5453 5453 5454 5455 5454 5453 5455 5457 5459 5461 5461 5461 5460 5459 5456 5453 5450
5503 5500 5499 5497 5495 5493 5492 5490 5488 5485 5483 5481 5478 5474 5470 5466 5461 5457 5455 5454 5454 5452 5453 5454 5454 5456 5456 5457 5459 5458 5457 5458 5458 5459 5460 5461 5462 5462 5461 5460 5458 5455 5452
5497 5495 5493 5492 5489 5488 5486 5484 5481 5478 5476 5475 5472 5469 5466 5463 5457 5454 5452 5454 5453 5454 5452 5453 5455 5458 5459 5459 5460 5461 5461 5461 5461 5461 5461 5462 5462 5462 5461 5460 5457 5455 5452
5492 5491 5489 5488 5486 5483 5479 5473 5472 5466 5464 5463 5462 5461 5459 5458 5451 5447 5446 5448 5448 5448 5447 5452 5457 5459 5460 5461 5462 5462 5463 5462 5462 5462 5462 5462 5461 5461 5460 5460 5457 5455 5452
5487 5486 5486 5484 5482 5480 5476 5469 5463 5461 5457 5456 5454 5452 5453 5451 5450 5449 5449 5449 5450 5449 5449 5454 5457 5459 5460 5461 5462 5462 5463 5462 5462 5463 5462 5461 5461 5460 5459 5459 5457 5455 5452
5482 5482 5482 5482 5480 5478 5476 5472 5464 5457 5454 5453 5452 5451 5450 5450 5450 5451 5451 5451 5453 5453 5454 5457 5458 5459 5459 5460 5461 5461 5461 5462 5462 5462 5461 5461 5460 5460 5459 5458 5457 5455 5453
5480 5478 5478 5478 5477 5476 5474 5472 5470 5465 5460 5456 5452 5451 5451 5451 5451 5452 5452 5452 5457 5458 5457 5457 5458 5458 5459 5459 5459 5459 5459 5460 5460 5460 5460 5460 5459 5460 5459 5458 5458 5456 5454
5478 5477 5476 5476 5476 5474 5472 5471 5468 5465 5462 5459 5456 5453 5451 5452 5453 5453 5452 5454 5457 5457 5456 5456 5457 5458 5457 5458 5457 5457 5457 5457 5457 5457 5457 5458 5459 5459 5459 5459 5459 5457 5456
5475 5471 5472 5474 5474 5472 5470 5469 5466 5463 5460 5458 5457 5456 5454 5455 5455 5456 5456 5456 5456 5455 5454 5454 5455 5456 5456 5455 5455 5455 5455 5454 5453 5453 5454 5456 5458 5459 5459 5459 5459 5458 5457
5477 5474 5470 5472 5473 5471 5468 5466 5464 5462 5459 5457 5457 5453 5450 5454 5455 5456 5455 5454 5453 5452 5452 5451 5453 5454 5453 5452 5451 5451 5450 5449 5448 5448 5450 5453 5456 5458 5459 5459 5459 5459 5459
5480 5479 5476 5475 5472 5469 5467 5465 5463 5460 5459 5457 5456 5455 5452 5453 5455 5454 5454 5452 5451 5450 5450 5449 5450 5450 5448 5447 5447 5446 5444 5443 5442 5443 5445 5449 5454 5457 5458 5459 5459 5460 5459
5480 5479 5477 5474 5471 5464 5465 5464 5462 5460 5458 5457 5456 5455 5454 5454 5454 5453 5452 5450 5449 5448 5448 5447 5447 5446 5444 5442 5442 5440 5438 5436 5436 5438 5441 5446 5451 5455 5457 5458 5459 5459 5459
5481 5479 5476 5473 5470 5467 5465 5462 5461 5459 5457 5456 5455 5454 5454 5453 5453 5452 5450 5449 5448 5447 5446 5446 5444 5442 5441 5439 5438 5437 5435 5434 5436 5438 5442 5445 5451 5455 5457 5458 5459 5460 5460
5482 5479 5476 5472 5469 5466 5464 5462 5459 5458 5456 5455 5454 5454 5453 5453 5452 5451 5449 5448 5448 5446 5445 5444 5442 5439 5437 5436 5435 5435 5436 5438 5439 5441 5444 5448 5453 5454 5456 5458 5460 5461 5461
5483 5479 5475 5472 5469 5466 5463 5461 5459 5457 5456 5455 5454 5454 5453 5453 5451 5449 5448 5447 5447 5445 5444 5442 5440 5437 5435 5434 5434 5435 5438 5440 5443 5446 5447 5450 5453 5454 5455 5457 5459 5461 5462